sat.trackr.live / text

‹ back to catalog

STARLINK-36782

NORAD 67805 · 2026-032J

PAYLOAD ACTIVE UNKNOWN

§ Identity

Operator
Country
US
Launch date
2026-02-15
Launch site
AFWTR
Launch vehicle
Mass (kg)
RCS (m²)

Purposes: comms

External: N2YO · Heavens-Above · Gunter

§ Orbital elements

Epoch: 2026-05-25T02:31:04.073664Z

Period
93.91 min
Inclination
97.2854°
Eccentricity
0.0001493
Mean motion
15.33447844 rev/d
Perigee alt
464.5 km
Apogee alt
466.6 km
Semi-major
6,843.7 km
B*
4.8995e-4
RAAN
333.2321°
Arg perigee
96.2799°
Mean anomaly
263.8614°
Rev number
1,667

§ Raw data

STARLINK-367821 67805U 26032J   26145.10490826  .00015777  00000+0  48995-3 0  99912 67805  97.2854 333.2321 0001493  96.2799 263.8614 15.33447844 16672

JSON: /api/v1/satellites/67805 · /tle

For live sub-satellite position, see the globe view (requires WebGL).

§ Visibility from observer

Set your observer location to see the next 7 days of passes ≥ 10°. The values pass through the URL so the page stays shareable.

No JS? Fill the form by hand. The geolocation button needs JavaScript.